Location: Plainartige
(45.6866°N, 1.7993°E)
Time: 03:53:55
(UTC+00:00)

Vanguard 1 - Pass Details

Date: 27 May 2022
Orbit: 649 x 3833 km, 34.2° (Epoch: 06 July)

Event Time Altitude Azimuth Distance (km) Brightness Sun altitude
Exits shadow 03:04:58 - 255° (WSW) 5,777 13.5 -9.8°
Reaches altitude 10° 03:07:24 10° 253° (WSW) 5,306 13.2 -9.5°
Maximum altitude 03:24:24 60° 179° (S) 3,879 12.9 -7.3°
Drops below altitude 10° 03:47:12 10° 108° (ESE) 6,844 14.9 -4.2°
Sets 03:52:20 0° 105° (ESE) 7,709 15.3 -3.4°
